Location: Stoke Bliss
(52.2667°N, 2.5167°W)
Time: 14:10:14
(UTC+00:00)

CZ-2C R/B - Pass Details

Date: 03 March 2021
Orbit: 784 x 871 km, 98.2° (Epoch: 10 April)

Event Time Altitude Azimuth Distance (km) Brightness Sun altitude
Rises 19:39:38 0° 14° (NNE) 3,444 5.9 -17.0°
Reaches altitude 10° 19:42:02 10° 13° (NNE) 2,493 5.1 -17.3°
Maximum altitude 19:47:35 82° 288° (WNW) 853 2.7 -18.2°
Drops below altitude 10° 19:52:58 10° 201° (SSW) 2,419 5.1 -19.0°
Sets 19:55:16 0° 200° (SSW) 3,334 5.9 -19.3°
